TJS-16

Last updated on Thu Oct 30 2025 00:02:52 GMT+0000 (Coordinated Universal Time)

1 63397U 25064A 25302.73124242 -.00000095 00000+0 00000+0 0 9995 2 63397 0.4990 81.0204 0002963 217.9908 163.1476 1.00271080 2080
UTC large
Height (km)
Speed (km/s)
/
Latitude / Longitude
Inclination (degrees)
Orbital Period (minutes)
Azimuth
Elevation
Range (km)
Doppler Factor

Next 0 passes for location: London (51.5072 / 0.1276)

Sorry there are no passes over London.